Strona główna
METAR-TAF:

METAR-TAF

Lotnisko :

Pontoise, Francja

Szerokość geograficzna: 49-05-48N, Długość geograficzna: 002-02-27E, wysokość: 99 m

Aktualna obserwacja pogody

Raport powstał 34 minut temu, godzina 20:00 UTC
Wiatr 4 kt od wschodnio-północny wschód
Temperatura 23°C
Wilgotność 57%
Ciśnienie 1021 hPa
Widzialność 10 km lub więcej
Brak chmur poniżej 1500 m i brak chmur cumulonimbus

METAR: LFPT 222000Z AUTO 06004KT CAVOK 23/14 Q1021

czas: 22:34 (20:34 UTC)


TAF: brakujący

Obserwacja i prognoza pogody dla ponad 4000 lotnisk (raport METAR i TAF).

Dostępne stacje oznaczono żółtymi i czerwonymi punktami na mapie.

Najedź kursorem aby zobaczyć nazwę stacji.

Kliknij aby zobaczyć obserwacje i prognozy pogody.

Aby zmienić mapę: kliknij na zielony przycisk z czarnym krzyżykiem, aby powiększyć; na zielony przycisk z myślnikiem, aby pomniejszyć; na zielone strzałki, aby przejść do map sąsiednich.


METAR-TAF: